Regional Weather Roundup
Issued by NWS Wakefield, VA

Home | Current Version | Previous Version | Text Only | Print | Product List | Glossary On
Versions: 1 2 3 4 5 6 7 8 9 10 11 12 13 14 15 16 17 18 19 20 21 22 23 24 25 26 27 28 29 30 31 32 33 34 35 36 37 38 39 40 41 42 43 44 45 46 47 48 49 50
000
ASUS41 KAKQ 050015
RWRAKQ

REGIONAL WEATHER ROUNDUP
NATIONAL WEATHER SERVICE WAKEFIELD VA
800 PM EDT TUE AUG 04 2015

Note: "fair" indicates few or no clouds below 12,000 feet with no
significant weather and/or obstructions to visibility. * = Denotes
station may not report precipitation (e.g., rain,snow,etc.),
thunder or fog.

VAZ042-051-052>054-056-050100-
NORTHERN VIRGINIA

CITY           SKY/WX    TMP DP  RH WIND       PRES   REMARKS
WASH NATIONAL  MOCLDY    85  68  56 NE7       29.89S
DULLES         LGT RAIN  75  67  76 NE9       29.90R
FORT BELVOIR   PTCLDY    77  67  71 CALM      29.89R
QUANTICO       MOCLDY    86  70  58 NE7       29.88R
FREDERICKSBRG* PTCLDY    87  76  69 S5        29.87R HX  97
STAFFORD*      PTCLDY    82  72  71 CALM      29.92R
WARRENTON      MOCLDY    78  70  74 NE9       29.89R
CULPEPER*      MOCLDY    77  70  78 N9        29.90R
MANASSAS*      NOT AVBL
LEESBURG*      MOCLDY    77  77 100 S13       29.93R
WINCHESTER     PTCLDY    81  66  61 S5        29.92R
FRONT ROYAL*   MOCLDY    73  68  83 CALM      29.91R
LURAY*         FAIR      79  66  65 NE7       29.91R
$$

VAZ048-049-060>072-079>083-050100-
CENTRAL AND SOUTH CENTRAL VIRGINIA

CITY           SKY/WX    TMP DP  RH WIND       PRES   REMARKS
RICHMOND       MOCLDY    85  72  65 S5        29.89R
CHESTERFIELD*  FAIR      84  64  51 CALM      29.91R
PETERSBURG*    PTCLDY    82  82  97 CALM      29.91R HX  96
HANOVER        MOCLDY    84  68  58 SW5       29.91R
TAPPAHANNOCK*  MOCLDY    80  75  85 CALM      29.90R
QUINTON*       FAIR      85  76  72 CALM      29.89R HX  95
CHARLOTTSVILLE PTCLDY    83  66  56 SW6       29.90R
GORDONSVILLE*  FAIR      81  68  65 CALM      29.89R
ORANGE*        PTCLDY    84  68  58 CALM      29.90R
LOUISA*        CLEAR     84  70  61 SW5       29.89R
BUMPASS*       FAIR      84  71  64 CALM      29.89R
FARMVILLE*     MOCLDY    84  70  61 S3        29.90R
CREWE*         FAIR     N/A N/A N/A CALM      29.91R
FORT PICKETT*  FAIR      83  74  72 CALM      29.91S
CHASE CITY*    FAIR      85  78  79 CALM      29.92R HX  96
CLARKSVILLE*   FAIR      81  75  83 CALM      29.91S
SOUTH HILL*    PTCLDY    83  76  80 CALM      29.97R
LAWRENCEVILLE* FAIR      82  75  78 CALM      29.90S
EMPORIA*       PTCLDY    84  73  70 SE5       29.92S
$$

VAZ088>098-050100-
SOUTHEAST VIRGINIA

CITY           SKY/WX    TMP DP  RH WIND       PRES   REMARKS
NORFOLK        PTCLDY    86  71  60 S14       29.92R
VIRGINIA BEACH MOCLDY    87  71  58 S10       29.92R
NORFOLK NAVAL  MOCLDY    85  72  65 S8        29.93R
WEST POINT*    PTCLDY    88  73  60 S7        29.90S HX  95
SALUDA*        MOCLDY    85  75  71 S7        29.89R
NEWPORT NEWS   PTCLDY    86  73  65 S10       29.91R
LANGLEY AFB    PTCLDY    85  74  67 S13       29.91R
FORT EUSTIS    PTCLDY    85  72  64 S6        29.89R
WILLIAMSBURG*  PTCLDY    90  75  62 S10       29.91R HX 100
HR EXEC AP*    FAIR      84  72  65 S8        29.94R
FRANKLIN*      PTCLDY    84  74  72 S8        29.92R
WAKEFIELD      PTCLDY    85  73  67 S3        29.91R
$$

VAZ020-022-025-037-045-050100-
WEST CENTRAL AND SOUTHWEST VIRGINIA

CITY           SKY/WX    TMP DP  RH WIND       PRES   REMARKS
STAUNTON*      MOCLDY    85  65  51 SW8       29.95R
WAYNESBORO*    FAIR      81  66  60 W6        29.95S
HOT SPRINGS VA CLOUDY    72  61  69 W13       30.10S
LYNCHBURG      MOCLDY    76  73  91 SW3       29.96S
DANVILLE       PTCLDY    83  70  64 CALM      29.93S
SOUTH BOSTON*  FAIR      82  73  76 NW3       29.92R
MARTINSVILLE   MOCLDY    80  70  70 CALM      29.98F
ROANOKE        MOCLDY    85  64  49 W8        29.99R
BLACKSBURG     CLOUDY    79  67  67 SW5       30.08R
DUBLIN*        LGT RAIN  76  66  73 NW7       30.07R
MARION*        CLOUDY    71  68  90 CALM      30.12S
HILLSVILLE*    CLOUDY    73  63  71 NW6       30.08S
RICHLANDS*     NOT AVBL
WISE*          DRIZZLE   72  59  64 SW6       30.14R
ABINGDON*      CLOUDY    76  66  72 W5        30.09R
$$

MDZ021>025-VAZ099-100-050100-
SOUTHERN MARYLAND AND THE DELMARVA PENINSULA

CITY           SKY/WX    TMP DP  RH WIND       PRES   REMARKS
PATUXENT RIVER MOCLDY    80  68  66 S6        29.89S
BAY BRIDGE APT   N/A     86  66  51 S3        29.87F
LEONARDTOWN    PTCLDY    81  64  57 CALM      29.90S
DOVER          MOCLDY    84  74  72 E2        29.87S
GEORGETOWN     MOCLDY    84  72  67 W5        29.89R
EASTON         PTCLDY    91  70  49 S8        29.92R HX  97
CAMBRIDGE      MOCLDY    81  66  61 CALM      29.88F
SALISBURY      MOCLDY    82  74  76 SW9       29.90S
OCEAN CITY     CLOUDY    81  74  79 SW10      29.90R
WALLOPS ISLAND CLOUDY    81  74  79 S18       29.91S
ACCOMACK*      MOCLDY    82  82 100 S10G17    29.91S HX  97
$$

NCZ012>017-030>032-050100-
NORTH CENTRAL AND EASTERN NORTH CAROLINA

CITY           SKY/WX    TMP DP  RH WIND       PRES   REMARKS
ROANOKE RAPIDS FAIR      84  72  65 S5        29.92R
RALEIGH        PTCLDY    87  71  58 SE6       29.92S
ELIZABETH CITY PTCLDY    83  73  72 S7        29.95R
AHOSKIE*       PTCLDY   N/A N/A N/A S6        29.93R
EDENTON*         N/A     83  71  66 S10       29.94S
CURRITUCK*     PTCLDY    84  71  64 S5        29.95R
KILL DEVIL HLS PTCLDY    81  73  77 S7G18     29.96R
MANTEO         PTCLDY    80  74  84 S21       29.97S
CAPE HATTERAS  MOCLDY    78  75  90 S12       29.99R
TARBORO*         N/A     85  72  65 CALM      29.93S
GOLDSBORO      CLEAR     84  73  69 SE7       29.92R
WASHINGTON     MOCLDY    82  72  73 S9G16     29.95R
GREENVILLE     PTCLDY    84  73  70 S7        29.96R
NEW BERN       MOCLDY    80  74  81 S6        29.95S
WILMINGTON     MOCLDY    82  77  84 SW7       29.93R
$$

VAZ048-050100-
ELSEWHERE

CITY           SKY/WX    TMP DP  RH WIND       PRES   REMARKS
HARRISBURG PA  PTCLDY    82  49  31 N6        29.90R
BALTIMORE      MOCLDY    75  71  87 NW6       29.89S
ANNAPOLIS      MOCLDY    83  69  62 NW8       29.88R
ANDREWS AFB    MOCLDY    81  68  65 N12       29.89R
PHILADELPHIA   PTCLDY    88  58  36 W8        29.89R
HENDERSON NC   PTCLDY    85  67  55 CALM      29.92S
GREENSBORO     MOCLDY    86  64  47 W3        29.95R
ROCKY MOUNT    CLEAR     85  72  65 S3        29.93R
$$

VAZ100-050100-
MARINE

STATION/POSITION TIME  TEMP    WIND        PRES    WAVE   SWELL
                       AIR SEA DIR/SP/G            HT/PER HT/PER
                 (UTC) (F)     (DEG/KT/KT) (MB)    (FT/S) (FT/S)
BRANDYWINE LGT   2300   82 78  150/  6/  9 1012.1F
CAPE MAY NJ      2300   83 80  120/  4/  5 1011.7S
LEWES DE         2300   84 75  130/  5/  6 1011.8F
15NM E FENWICK I 2350   80 79  190/ 16/ 19 1012.3R   4/ 7   2/10
OCEAN-CITY-INLET 2300   77 79  220/ 11/ 12 1011.7R
WACHAPREAGUE VA  2300   84 88  200/ 11/ 16 1013.0R
GOOSES REEF MD   0000   84 83  210/ 14/ 17 1012.6F
COVE POINT MD    2300   79     200/ 15/ 18 1012.6R
SOLOMONS ISLAND  2300      84                N/A
BISHOPS HEAD MD  2300   80 85  220/ 10/ 22 1011.2R
PINEY POINT MD   2300          250/  2/  3   N/A
POTOMAC MD       0000   81 83   90/  8/ 10 1011.0F   1
CAMBRIDGE MD     2300   84 85  180/  5/  9 1011.3R
LEWISETTA VA     2300   81 84   70/  6/  7 1011.7R
RAPPAHANNOCK LGT 2300          180/ 13/ 14 1012.9R
STINGRAY PT      0000   86 84  200/ 10/ 14 1012.3R   1/ 3
YORK RVR RNG VA  2300   87     210/ 14/ 16 1011.7R
YORKTOWN VA      2300   87 84  210/ 10/ 18 1012.0R
JAMESTOWN VA     0000   86 86  160/  8/ 10   N/A
DOMINION TERM VA 2300   86     200/ 14/ 16 1012.2R
KIPTOPEKE VA     2300      83  200/ 13/ 16   N/A
CHES BAY BRIDGE  2300   87 82  180/ 16/ 20 1012.1R
CAPE HENRY VA    2300   87     190/  9/ 13   N/A
CHESAPEAKE LGHT  2300   80     180/ 21/ 22 1013.4R
WILLOUBY STN VA  2300   87     220/ 15/ 17 1013.5S
CAPE HENRY BUOY  2328      78                N/A     3/ 5   2/11
1ST LANDING BUOY 0000      82              1012.9R   2/ 4
CAPE CHARLES BUO 2326      73                N/A     3/ 5   2/11
OFFSHORE WE BUOY 2311      81                N/A     4/ 4   2/11
64NM E OF VA BCH 2350   81 81  200/ 19/ 25 1014.1R   4/ 5   2/11
DUCK PIER NC     2300   83 63  200/ 16/ 19 1013.2F
44100 DUCK FRF   2324      79                N/A     3/ 6
44056 DUCK FRF   2311      64                N/A     2/11
OREGON INLET NC  2300   81 83  180/ 16/ 23 1014.8F
HATTERAS NC      2300   78 79  160/ 11/ 16 1014.8F
DIAMOND SHLS NC  2350   80 83  180/ 19/ 21 1015.2F   5/ 6   3/11
CAPE LOOKOUT NC  0000   80     200/ 10/ 14 1013.8R
$$


USA.gov is the U.S. government's official web portal to all federal, state and local government web resources and services.